Theta_e
311 312 311 311 311 312 313 313 314 315 316 318 319 317 318 317 316 318 316 316 317 321 322 321 321 324 324 325 326 325 329 331 333 340 338 339 340 343 345 345 344 342 342 344 341 339 339 339 339 343 343 342 341 341
310 310 310 310 310 310 312 313 313 314 316 317 319 317 317 317 316 317 316 315 315 316 321 318 320 322 322 322 324 325 329 330 330 337 337 342 347 342 344 340 341 344 340 342 343 343 342 341 340 339 338 341 341 340
308 309 309 309 309 310 310 312 313 314 315 316 317 319 317 318 316 317 316 315 315 317 319 319 322 321 319 320 322 325 326 326 333 329 337 340 343 341 346 343 344 342 338 345 340 341 338 338 338 337 337 339 338 339
308 308 308 308 308 310 310 312 313 314 315 317 317 318 317 318 316 316 316 316 315 316 320 323 319 320 321 321 321 321 324 325 326 328 335 339 340 336 341 339 343 340 339 340 340 339 337 335 335 334 334 336 338 341
308 307 307 307 308 309 310 311 313 314 315 317 317 317 317 317 316 315 317 317 316 317 321 322 319 319 318 319 322 322 322 325 328 331 332 333 333 337 336 337 340 337 342 339 338 337 338 337 334 335 336 338 338 341
307 307 307 307 308 309 310 311 313 314 315 316 317 317 317 317 315 317 317 314 314 316 319 324 321 321 320 319 320 323 324 324 326 329 329 331 329 336 340 341 336 335 335 334 336 334 336 336 334 334 339 340 339 339
307 307 307 307 308 309 310 311 313 314 315 317 317 317 317 316 315 316 318 315 313 314 319 324 326 322 321 319 321 323 323 325 326 327 330 332 338 333 338 334 332 333 333 333 334 333 336 334 338 337 338 341 340 343
306 306 307 308 308 309 310 311 312 313 314 315 316 317 316 315 315 316 316 315 314 315 316 324 325 323 321 325 324 322 325 324 326 328 328 331 333 335 340 337 336 334 332 332 333 333 334 334 336 337 340 341 343 343
306 306 307 309 309 310 310 310 312 313 314 314 314 314 314 314 315 315 315 315 315 315 321 321 325 329 323 324 324 323 326 328 324 329 330 332 334 338 336 338 335 334 333 333 333 333 333 333 334 336 338 340 342 344
306 307 308 310 310 310 311 311 312 313 314 314 314 314 318 315 315 315 314 315 315 316 316 322 320 327 322 324 328 329 326 331 331 330 327 332 331 333 333 335 337 337 337 334 333 336 336 335 336 335 336 336 338 343
305 306 308 310 311 313 312 312 313 313 313 314 315 318 316 315 315 316 320 320 320 322 320 320 321 324 321 324 325 326 332 331 334 334 333 335 335 336 337 336 334 334 335 335 333 333 333 335 336 337 336 336 340 342
305 305 306 308 310 312 313 313 313 313 314 315 315 316 315 316 319 322 323 321 322 326 322 321 321 319 322 320 325 327 335 331 336 332 335 336 335 337 336 335 334 333 336 331 330 331 332 333 334 336 338 341 342 340
304 304 304 305 307 310 313 314 313 313 314 315 315 318 320 320 327 325 327 326 327 325 325 322 326 321 319 320 324 329 335 337 332 336 338 337 341 338 336 334 334 332 333 336 331 330 332 333 331 335 340 340 341 340
304 304 304 304 305 308 310 313 313 313 315 317 319 320 322 323 323 323 325 326 326 326 325 325 326 324 322 323 326 334 332 333 337 338 336 338 337 334 332 331 332 332 331 333 336 336 331 332 334 337 339 340 339 339
304 304 304 304 304 305 307 309 311 312 313 318 319 322 322 321 320 321 322 322 322 322 323 326 327 325 328 329 329 331 332 334 333 335 336 336 333 331 330 330 331 331 332 332 333 336 337 333 333 333 337 339 337 337
302 303 304 304 303 305 306 307 308 310 312 317 318 319 319 319 320 321 321 321 320 319 323 325 330 331 334 333 334 334 332 333 339 339 336 333 333 331 330 328 329 331 332 332 332 334 336 336 336 335 336 338 337 335
301 304 304 304 304 305 306 306 308 312 315 317 318 317 319 319 320 320 319 319 317 320 331 326 332 333 328 333 335 335 336 339 337 335 332 331 331 330 328 327 329 330 330 331 332 334 335 333 333 334 337 336 335 335
302 304 304 303 304 306 307 308 310 314 316 315 317 316 316 318 320 319 318 317 317 319 325 330 327 332 332 333 336 336 335 333 332 333 332 330 328 327 327 329 331 331 330 331 331 333 333 333 335 335 334 333 332 331
301 302 303 301 303 304 308 310 309 314 314 314 314 314 315 315 315 316 316 316 315 316 318 325 331 331 331 331 333 332 333 333 332 331 330 327 327 328 329 330 332 332 331 332 332 335 336 332 332 330 330 330 331 330
300 300 302 301 301 304 309 310 309 311 313 313 312 314 315 316 316 315 316 316 316 317 320 324 329 328 327 327 329 330 330 331 332 333 332 329 327 328 329 329 332 332 332 333 334 332 333 333 331 330 328 330 330 329
301 302 303 301 302 302 305 307 311 311 312 313 313 314 315 313 314 314 315 316 317 317 319 321 321 322 323 326 325 326 328 329 331 329 330 331 330 328 329 329 330 331 333 336 338 332 333 335 332 331 328 329 329 328
302 304 303 302 303 305 305 307 310 310 310 310 310 311 313 314 314 314 315 316 317 317 316 318 319 319 320 321 323 322 322 323 324 324 322 323 329 331 330 331 330 331 333 332 333 335 334 333 332 331 329 328 327 326
302 302 303 304 307 306 307 306 310 310 312 311 310 310 311 312 313 312 316 316 316 316 317 316 317 316 318 320 317 317 317 320 320 321 321 322 324 326 327 329 328 330 331 332 333 334 335 332 329 329 329 328 328 325
302 302 304 306 306 306 305 306 307 309 309 310 310 311 311 312 310 313 316 314 314 313 315 318 317 318 317 316 317 318 318 316 318 318 319 321 323 325 325 323 324 323 325 328 331 331 333 330 328 328 329 328 328 326
302 302 302 302 303 305 306 307 308 309 310 309 310 311 311 309 312 313 314 313 311 312 312 313 315 317 318 318 316 317 315 315 318 319 319 321 325 321 320 320 320 321 321 326 332 330 331 332 331 331 330 330 328 326
300 301 301 304 304 305 305 306 308 309 309 308 308 309 307 309 310 311 311 310 311 314 316 316 315 315 314 312 314 316 316 314 315 318 318 319 320 320 320 320 321 322 321 325 331 331 331 331 331 331 329 327 326 325
300 302 302 300 302 302 304 304 304 306 308 308 308 308 308 309 309 309 309 312 311 310 310 310 310 311 311 311 311 313 314 314 315 317 317 318 318 318 319 321 324 322 322 327 331 331 331 332 331 331 329 327 325 325
302 302 303 302 302 303 304 305 306 306 307 307 307 309 310 309 309 309 313 311 309 309 309 308 308 308 309 310 310 310 313 315 315 315 316 319 321 324 323 321 320 319 319 320 326 330 331 331 331 331 329 326 324 324
302 303 302 302 303 304 304 304 305 306 306 307 309 309 309 308 307 310 310 310 309 310 309 308 309 307 308 309 309 310 310 313 317 320 322 323 322 321 321 322 324 321 320 319 319 326 330 329 329 329 328 328 329 325
301 301 303 303 303 304 304 304 304 305 305 306 306 306 306 306 305 307 309 309 309 310 309 308 307 307 308 309 309 309 310 311 313 317 321 322 321 319 319 326 329 327 325 323 325 327 327 326 324 325 326 325 325 325
301 301 302 302 304 304 304 304 304 304 306 306 306 307 308 308 307 307 306 306 307 308 309 309 307 307 308 309 310 310 310 310 314 314 314 315 316 317 318 321 325 328 329 330 329 329 328 328 327 325 324 324 322 321
302 302 303 303 304 304 304 305 306 307 307 307 307 307 307 308 308 308 307 306 306 308 307 307 308 308 308 308 308 309 309 309 308 311 314 315 317 318 320 321 321 323 325 329 330 329 329 328 328 328 327 326 325 321
303 303 303 304 305 307 308 307 307 309 310 310 311 310 311 310 310 310 310 309 309 309 308 308 308 307 307 308 308 309 309 309 309 309 313 314 317 318 319 320 323 323 323 327 328 329 328 328 328 327 326 326 325 323
Wind_Speed
14 12 12 12 13 14 14 13 13 13 12 12 13 12 10 8 6 6 4 6 4 3 7 6 4 4 2 2 3 4 4 2 2 2 2 2 3 2 3 0 2 3 3 2 2 3 6 8 6 7 2 3 6 8
14 14 14 13 14 14 13 13 12 13 12 12 13 14 13 11 8 9 3 2 8 4 5 5 12 16 17 16 4 1 3 3 2 0 1 2 3 2 1 4 2 4 2 2 6 2 0 6 6 3 3 5 6 8
15 14 14 14 14 14 13 12 12 12 13 13 15 16 15 13 11 11 5 5 3 3 6 5 10 15 21 33 27 5 3 3 2 1 1 1 2 1 3 4 2 3 2 3 2 4 9 10 10 8 5 5 9 10
14 13 14 15 15 14 14 13 12 12 13 13 15 17 16 14 11 12 12 6 4 2 4 5 4 7 4 11 23 33 8 2 2 1 1 1 2 2 1 2 3 1 4 2 5 11 10 12 7 6 5 6 8 7
13 14 15 16 15 14 14 13 12 11 12 12 14 16 17 15 11 11 16 17 13 3 3 7 19 8 8 16 20 24 22 9 2 2 2 2 2 3 1 0 3 6 5 4 5 4 2 4 4 1 4 5 6 4
14 15 15 16 17 15 13 13 11 10 10 10 12 14 16 14 10 5 3 8 22 13 2 4 5 3 3 5 16 14 11 8 4 3 3 2 1 3 3 3 6 8 7 9 6 1 3 10 8 5 3 3 2 3
14 15 17 17 18 15 12 11 10 9 7 7 10 13 16 15 15 4 1 1 9 17 3 5 4 2 0 5 3 4 11 3 4 3 3 3 3 4 2 7 11 8 11 12 14 9 9 13 6 4 3 3 4 6
13 14 16 17 16 14 11 10 8 8 6 5 7 13 14 13 13 12 18 12 14 3 3 3 4 3 4 3 4 4 5 4 5 3 2 3 4 3 5 8 14 14 11 12 12 12 17 6 4 4 1 4 5 6
12 13 16 15 13 12 10 9 8 7 5 5 6 8 6 5 6 3 5 12 17 2 3 3 3 1 2 2 3 3 4 4 3 5 3 6 4 5 9 10 11 7 5 10 7 7 10 15 10 7 5 4 3 6
10 10 13 13 11 11 9 7 7 6 6 7 8 5 3 5 5 16 3 3 3 3 3 4 2 4 2 0 4 4 3 3 5 5 4 4 5 9 4 6 9 10 11 9 9 8 6 9 8 11 14 12 8 10
9 9 10 11 11 10 8 8 8 7 8 5 3 2 5 13 6 2 3 4 5 4 5 5 8 7 3 3 1 3 2 3 4 4 5 4 4 1 5 8 9 10 11 13 15 14 11 3 6 8 10 10 7 10
6 8 9 10 10 8 10 10 11 12 6 7 4 5 6 3 3 4 4 3 5 5 5 4 5 6 3 2 3 3 2 2 4 5 4 3 2 0 4 9 11 11 11 7 11 15 12 9 8 8 8 10 12 15
6 7 8 9 9 8 7 12 15 18 8 4 3 3 3 4 6 5 7 4 4 4 5 5 4 2 3 3 3 3 5 5 6 5 3 0 2 1 5 7 10 11 13 11 6 8 10 9 12 12 11 14 20 20
6 7 8 8 8 5 1 6 14 16 5 3 4 4 4 5 5 5 4 3 3 2 5 4 3 4 3 5 3 4 2 4 5 5 6 3 0 3 5 5 6 9 11 11 11 6 5 7 9 11 15 20 21 19
7 6 8 9 7 5 4 7 11 8 4 3 3 4 6 5 2 3 3 3 3 2 2 1 3 3 3 3 4 2 4 4 4 4 3 3 1 2 4 6 7 8 7 7 10 12 6 2 7 10 15 21 22 21
6 6 4 6 6 6 5 6 7 5 2 3 4 3 4 2 4 1 1 2 3 5 1 2 3 3 6 3 5 6 3 4 4 3 3 3 3 0 4 5 4 4 5 5 7 9 10 4 2 5 14 20 23 22
3 3 3 5 7 7 6 5 7 4 3 4 4 4 4 2 2 1 2 3 5 2 2 2 5 6 3 4 5 3 2 3 4 4 2 2 2 2 2 4 4 4 4 5 5 5 7 5 4 7 11 15 16 18
4 4 4 5 6 3 4 6 3 3 4 3 3 3 2 1 1 1 1 2 4 5 2 2 4 4 4 4 3 3 2 3 2 3 3 2 1 1 1 4 6 5 5 6 6 6 2 4 5 5 10 16 16 15
3 4 3 3 4 2 1 2 2 2 4 1 2 2 2 1 2 2 2 1 5 4 4 2 6 2 2 1 2 3 4 3 3 3 2 1 2 3 5 6 7 8 7 4 5 6 3 4 4 6 10 17 14 17
4 5 5 4 5 2 2 2 2 2 2 2 2 2 2 2 2 3 3 2 1 4 2 3 2 2 2 2 2 2 3 5 3 3 2 2 0 3 4 4 5 10 9 7 4 2 2 2 2 6 10 13 18 16
2 2 3 6 2 2 2 2 3 2 2 3 1 3 2 2 4 5 5 5 3 3 4 4 2 2 1 5 5 5 5 5 2 1 1 1 0 3 5 6 7 6 5 5 3 2 1 1 4 6 10 11 13 15
3 4 3 5 2 3 3 5 2 1 1 1 1 2 2 3 5 5 4 7 6 9 8 5 3 2 4 5 5 4 4 5 4 2 2 2 2 3 4 4 5 5 5 6 4 1 4 5 6 7 10 11 14 16
3 4 2 4 3 3 3 3 3 4 3 3 3 3 4 4 3 3 4 5 5 5 6 7 9 7 5 3 3 3 3 3 3 4 6 6 7 7 8 9 5 4 5 7 4 4 2 5 9 8 9 13 15 16
3 2 2 3 5 3 1 3 3 3 3 3 4 3 3 3 3 3 4 3 3 2 6 9 6 7 5 4 4 4 5 7 8 9 10 7 6 7 8 9 9 9 8 8 8 7 2 8 15 14 12 13 14 17
1 3 3 4 3 3 3 3 3 3 4 5 3 4 3 2 3 3 3 2 2 3 4 5 7 8 8 6 4 4 5 6 5 6 9 10 10 6 7 9 11 14 12 7 7 7 7 4 11 16 17 16 15 16
3 4 6 5 3 4 4 3 5 6 3 4 5 3 1 2 3 5 2 3 3 3 3 3 3 3 2 2 2 3 1 3 3 4 9 10 13 9 7 7 8 10 11 10 7 7 5 6 5 7 11 17 19 17
4 5 4 2 2 2 3 4 3 3 4 5 3 3 3 4 5 3 2 3 3 4 6 6 5 4 3 1 3 4 5 7 10 8 5 7 8 12 12 9 8 11 10 6 7 8 7 8 8 9 9 12 17 17
5 3 6 5 4 4 3 3 4 6 5 4 3 5 4 5 3 3 3 7 7 7 5 4 3 2 0 3 6 8 7 5 6 8 9 10 10 9 9 11 13 15 12 7 5 4 7 7 8 10 12 14 16 15
4 3 3 5 5 5 6 7 5 5 3 5 4 5 3 2 1 2 4 8 9 6 4 3 3 3 2 4 6 6 8 7 4 8 11 8 5 6 5 8 7 8 12 11 9 6 6 7 8 10 13 18 17 13
5 6 4 5 5 8 6 9 6 5 4 4 2 2 3 3 4 7 9 10 9 7 12 12 11 8 7 6 7 9 8 6 7 8 7 7 5 6 6 6 3 3 6 8 6 7 9 8 9 10 14 16 17 19
2 6 5 5 5 6 10 10 7 5 4 6 6 8 12 10 12 14 16 18 18 17 14 11 14 14 13 11 8 7 7 5 5 3 5 9 11 9 6 4 4 1 4 6 8 9 10 11 11 13 14 16 17 18
5 9 5 5 4 4 2 3 3 3 4 8 9 7 5 5 7 5 14 19 20 11 20 22 17 19 22 20 18 18 18 15 14 12 9 8 10 9 6 4 4 5 5 6 7 7 9 9 11 13 16 17 16 19
4 6 7 4 3 3 3 4 4 4 6 6 8 9 9 7 8 4 5 14 19 19 20 23 25 24 22 21 22 21 20 18 17 17 16 15 17 14 12 10 7 8 10 9 11 10 11 11 11 11 12 12 12 13
Wind_Direction
318 318 313 305 303 304 301 296 290 284 277 244 228 227 238 235 245 231 273 247 218 258 277 230 242 234 206 232 284 359 296 188 282 233 226 171 223 166 223 86 257 215 191 192 150 216 245 145 138 206 27 320 309 310
310 309 307 305 301 300 300 300 292 282 273 257 233 223 229 234 244 223 255 188 208 239 281 273 258 255 247 256 264 261 317 284 306 18 209 195 193 182 287 224 152 230 251 234 223 242 120 195 255 228 317 303 321 322
305 309 311 311 309 304 299 295 290 283 274 264 232 226 221 226 231 217 231 219 231 270 276 255 241 264 242 233 230 246 228 252 232 311 170 66 257 159 201 222 223 208 158 242 288 217 251 255 249 271 291 296 314 311
302 307 309 310 310 309 301 296 290 282 277 265 233 224 218 219 229 225 228 238 213 291 280 278 299 259 254 216 213 216 231 95 78 238 230 174 247 206 238 352 266 54 150 276 266 276 282 273 267 276 274 295 317 329
301 304 308 308 306 303 302 298 290 284 283 260 232 222 216 211 221 233 239 244 241 263 292 291 299 276 252 225 204 205 212 221 265 264 230 230 150 178 146 234 249 193 181 205 260 359 291 336 351 311 321 321 309 330
302 304 308 310 307 301 296 296 291 284 283 256 227 220 211 200 203 201 274 236 228 201 275 293 323 270 329 185 200 203 197 200 222 234 234 230 204 220 201 220 256 211 224 244 270 294 233 269 295 286 270 346 342 332
302 306 308 312 309 301 289 288 286 282 275 253 224 214 201 199 194 197 238 5 183 173 238 280 281 250 272 125 128 151 175 188 210 229 231 229 189 186 231 244 259 250 240 243 245 260 271 248 254 212 284 104 120 72
303 314 314 312 302 293 284 278 271 273 255 234 206 202 202 203 219 239 248 252 160 204 238 270 275 290 175 171 138 163 163 192 196 234 217 211 140 217 245 242 256 268 277 274 268 237 248 249 176 215 159 151 112 97
311 315 317 313 302 289 276 267 252 255 229 206 181 172 161 190 202 223 213 189 183 265 279 232 266 281 351 131 123 171 178 173 145 216 217 173 181 218 227 240 265 295 281 303 312 275 259 238 234 216 218 220 167 138
303 308 320 317 299 289 273 239 229 227 201 177 153 173 194 200 168 125 126 141 177 223 232 245 223 260 290 86 181 181 192 184 183 204 136 214 241 256 278 307 293 290 283 276 266 254 221 245 222 224 230 238 227 173
303 312 319 323 309 278 257 225 210 192 176 170 188 206 122 148 159 163 186 201 185 224 206 229 210 235 194 247 270 217 188 171 210 160 210 205 244 156 355 338 330 312 290 265 247 250 255 228 163 203 216 218 187 161
302 319 326 322 317 296 245 221 209 190 186 192 178 142 141 185 206 189 199 186 214 229 190 200 205 201 229 219 221 193 226 187 215 137 191 235 146 161 340 343 341 346 334 281 240 240 233 208 194 203 196 173 159 152
297 319 329 327 319 309 269 216 205 204 196 175 217 167 193 160 211 216 184 198 214 202 188 181 187 196 190 221 218 204 202 205 131 183 214 214 146 287 342 332 333 354 4 6 332 245 233 189 181 188 172 170 158 158
291 308 322 322 324 315 278 197 205 191 191 204 187 222 210 181 232 198 218 200 235 255 176 175 149 192 173 183 214 224 171 158 198 209 219 159 58 342 332 336 327 346 352 2 356 330 270 181 173 183 173 169 162 165
277 294 304 310 303 305 254 196 177 178 181 223 200 224 217 242 270 270 266 279 250 259 199 199 204 200 177 226 208 193 189 214 209 181 119 147 216 326 348 357 356 360 343 342 350 353 343 255 194 190 183 174 175 170
278 292 275 290 302 303 263 208 193 197 230 232 205 252 234 281 256 253 295 290 31 326 228 237 200 191 208 210 190 207 203 196 150 145 136 170 189 234 335 330 326 340 357 329 336 343 341 10 16 153 166 178 179 177
251 231 259 306 303 296 217 191 191 205 226 213 228 232 258 294 265 271 352 323 335 300 208 176 227 197 113 200 194 193 199 133 126 138 153 214 284 314 294 305 324 320 309 301 295 328 335 350 95 149 162 167 172 176
224 247 260 307 325 283 194 214 229 223 214 232 226 217 192 233 230 246 288 342 356 341 286 247 302 205 186 163 177 170 129 117 117 113 117 123 109 61 323 338 334 327 314 312 297 307 255 172 194 183 160 155 147 155
241 260 253 324 334 303 263 223 223 233 226 236 248 232 245 216 234 222 217 300 297 242 279 195 230 193 155 172 157 150 147 141 141 145 132 100 27 2 354 359 356 1 353 326 318 309 298 184 189 186 171 162 147 161
257 266 237 267 327 286 249 222 219 234 226 219 190 188 231 230 190 210 200 186 355 303 281 279 216 171 192 168 188 145 136 135 141 149 148 124 86 332 343 332 335 342 344 358 17 62 90 75 140 194 198 184 155 161
208 171 204 192 255 244 277 286 220 226 255 242 183 177 233 231 236 235 242 153 159 210 257 242 223 259 284 135 165 137 140 155 166 152 137 271 327 314 316 329 346 343 353 7 29 71 248 228 215 189 193 186 160 150
177 173 163 188 237 210 242 226 254 321 241 261 214 188 249 237 233 222 184 200 220 213 215 244 284 169 216 194 183 183 145 167 163 182 216 217 266 288 305 322 336 334 333 348 354 284 187 201 194 187 184 168 156 149
186 181 206 206 242 210 259 181 226 193 214 208 174 214 217 219 221 142 228 219 229 206 205 211 226 195 226 217 171 168 202 228 246 246 247 247 260 255 267 279 280 303 315 326 345 260 136 169 176 175 184 165 157 147
173 206 223 221 205 253 241 223 218 220 220 223 205 235 226 221 156 219 243 217 214 214 207 207 206 217 226 220 224 228 221 215 244 254 248 242 247 239 233 263 284 285 278 295 302 287 214 166 166 170 181 167 166 157
183 232 185 235 212 229 226 220 209 209 239 207 229 237 226 192 223 235 231 219 197 196 199 198 212 223 233 237 224 220 199 215 244 256 249 223 224 242 260 259 261 265 275 260 264 261 280 236 172 173 173 167 155 160
223 220 197 204 195 212 206 226 208 214 202 209 226 252 246 226 237 242 223 184 178 178 169 169 181 159 150 216 251 258 236 201 219 246 256 219 221 232 247 256 264 266 254 240 229 223 230 235 229 179 145 144 153 158
244 227 209 223 252 217 244 244 248 244 220 219 214 198 202 224 233 238 152 177 143 153 142 124 101 90 94 22 309 287 279 258 234 244 268 282 250 241 244 247 246 254 263 209 201 206 200 197 189 184 174 167 173 172
240 231 210 185 207 220 246 242 221 215 213 206 200 202 215 217 241 173 177 168 155 150 148 145 146 142 234 317 315 317 324 313 274 250 254 263 254 250 258 259 255 252 252 273 263 218 193 188 188 179 176 170 169 179
230 217 202 221 210 214 220 221 232 224 208 188 201 204 226 223 220 167 169 165 169 177 215 246 242 202 255 291 298 300 308 315 261 219 216 230 244 247 262 285 285 252 237 244 257 219 188 181 183 184 184 185 180 185
229 190 217 210 210 220 223 203 229 229 209 228 246 266 252 235 212 184 163 175 192 218 232 252 267 257 280 290 299 296 298 283 268 244 242 236 257 312 306 295 278 232 199 202 202 173 168 157 150 152 164 165 175 186
196 185 224 229 246 238 236 238 244 251 240 238 233 242 254 268 273 248 222 227 230 233 233 237 243 239 244 250 255 267 275 258 219 289 283 272 269 273 282 299 317 211 173 172 169 170 168 170 172 178 181 182 188 191
203 208 204 226 247 254 237 212 232 233 235 228 241 231 250 241 249 253 234 224 224 222 228 236 239 241 237 241 242 241 244 254 269 277 288 288 269 257 256 276 267 245 222 197 194 192 190 188 189 193 196 200 195 197
240 233 235 276 267 256 204 178 228 256 230 235 241 244 240 242 250 261 242 225 231 234 235 235 236 239 237 233 231 236 233 240 256 260 266 284 265 255 258 259 251 249 245 218 203 198 196 197 195 189 194 206 202 198